• In Uzbekistan
  • List of Countries
  • For 7 days
  • Water Temperature
  • Satellite Maps
  • Weather Map
  • Weather Widgets
  • user-avatar
    Login

    Hourly Weather Chinyavoryk

    Today, 19 August, Sunday

    Time Temperature Precipitation Wind Pressure Humidity
    00:00 +9°C° 0 mm 2 mps 747 mmHg 72%
    01:00 +9°C° 0 mm 2 mps 747 mmHg 73%
    02:00 +10°C° 0 mm 2 mps 747 mmHg 72%
    03:00 +10°C° 0 mm 2 mps 747 mmHg 72%
    04:00 +12°C° 0 mm 2 mps 747 mmHg 71%
    05:00 +12°C° 0 mm 2 mps 747 mmHg 72%
    06:00 +13°C° 0 mm 2 mps 747 mmHg 73%
    07:00 +13°C° 0 mm 2 mps 746 mmHg 75%
    08:00 +14°C° 0 mm 2 mps 746 mmHg 74%
    09:00 +15°C° 0 mm 2 mps 746 mmHg 74%
    10:00 +14°C° 0 mm 3 mps 746 mmHg 73%
    11:00 +17°C° 0 mm 3 mps 745 mmHg 67%
    12:00 +19°C° 0 mm 3 mps 745 mmHg 61%
    13:00 +21°C° 0 mm 3 mps 745 mmHg 55%
    14:00 +21°C° 0 mm 3 mps 744 mmHg 54%
    15:00 +21°C° 0 mm 3 mps 744 mmHg 53%
    16:00 +22°C° 0 mm 3 mps 744 mmHg 52%
    17:00 +21°C° 0 mm 3 mps 743 mmHg 56%
    18:00 +20°C° 0 mm 2 mps 743 mmHg 60%
    19:00 +19°C° 0 mm 2 mps 743 mmHg 65%
    20:00 +18°C° 0 mm 2 mps 743 mmHg 68%
    21:00 +17°C° 0 mm 2 mps 742 mmHg 71%
    22:00 +16°C° 0 mm 2 mps 742 mmHg 75%
    23:00 +15°C° 0 mm 2 mps 742 mmHg 76%

    Tomorrow, 20 August, Monday

    Time Temperature Precipitation Wind Pressure Humidity
    00:00 +15°C° 0 mm 2 mps 742 mmHg 77%
    01:00 +14°C° 0 mm 3 mps 741 mmHg 79%
    02:00 +13°C° 0 mm 3 mps 741 mmHg 80%
    03:00 +13°C° 0 mm 3 mps 741 mmHg 81%
    04:00 +13°C° 0 mm 3 mps 740 mmHg 83%
    05:00 +13°C° 0 mm 3 mps 740 mmHg 81%
    06:00 +14°C° 0 mm 3 mps 740 mmHg 79%
    07:00 +14°C° 0 mm 4 mps 739 mmHg 77%
    08:00 +17°C° 0 mm 4 mps 739 mmHg 70%
    09:00 +18°C° 0 mm 4 mps 739 mmHg 63%
    10:00 +20°C° 0 mm 5 mps 738 mmHg 56%
    11:00 +20°C° 0.3 mm 4 mps 738 mmHg 62%
    12:00 +19°C° 0.3 mm 4 mps 738 mmHg 69%
    13:00 +19°C° 0.3 mm 4 mps 738 mmHg 75%
    14:00 +18°C° 0.8 mm 3 mps 738 mmHg 81%
    15:00 +17°C° 0.8 mm 3 mps 738 mmHg 87%
    16:00 +16°C° 0.8 mm 3 mps 738 mmHg 93%
    17:00 +14°C° 0 mm 3 mps 738 mmHg 94%
    18:00 +15°C° 0 mm 2 mps 737 mmHg 94%
    19:00 +15°C° 0 mm 2 mps 737 mmHg 94%
    20:00 +15°C° 0 mm 2 mps 738 mmHg 95%
    21:00 +14°C° 0 mm 1 mps 738 mmHg 97%
    22:00 +14°C° 0 mm 1 mps 738 mmHg 98%
    23:00 +13°C° 0 mm 1 mps 738 mmHg 98%

    Day after tomorrow, 21 August, Tuesday

    Time Temperature Precipitation Wind Pressure Humidity
    00:00 +13°C° 0 mm 1 mps 738 mmHg 98%
    01:00 +13°C° 0 mm 1 mps 738 mmHg 98%
    02:00 +13°C° 0 mm 1 mps 738 mmHg 98%
    03:00 +12°C° 0 mm 1 mps 738 mmHg 98%
    04:00 +12°C° 0 mm 1 mps 738 mmHg 98%
    05:00 +13°C° 0 mm 1 mps 738 mmHg 98%
    06:00 +13°C° 0 mm 1 mps 738 mmHg 97%
    07:00 +14°C° 0 mm 1 mps 738 mmHg 96%
    08:00 +14°C° 0 mm 1 mps 738 mmHg 93%
    09:00 +15°C° 0 mm 1 mps 737 mmHg 90%
    10:00 +16°C° 0 mm 2 mps 737 mmHg 87%
    11:00 +17°C° 0 mm 2 mps 737 mmHg 82%
    12:00 +18°C° 0 mm 2 mps 737 mmHg 77%
    13:00 +19°C° 0 mm 3 mps 736 mmHg 72%
    14:00 +19°C° 0 mm 3 mps 736 mmHg 70%
    15:00 +19°C° 0 mm 3 mps 735 mmHg 69%
    16:00 +20°C° 0 mm 4 mps 735 mmHg 67%
    17:00 +19°C° 0 mm 4 mps 735 mmHg 69%
    18:00 +19°C° 0 mm 3 mps 734 mmHg 70%
    19:00 +19°C° 0 mm 3 mps 734 mmHg 72%
    20:00 +18°C° 0 mm 4 mps 733 mmHg 75%
    21:00 +17°C° 0 mm 4 mps 733 mmHg 78%
    22:00 +17°C° 0 mm 4 mps 732 mmHg 81%
    23:00 +15°C° 0 mm 4 mps 732 mmHg 84%

    22 August, Wednesday

    Time Temperature Precipitation Wind Pressure Humidity
    00:00 +15°C° 0 mm 4 mps 731 mmHg 87%
    01:00 +14°C° 0 mm 5 mps 730 mmHg 89%
    02:00 +15°C° 0.1 mm 5 mps 730 mmHg 90%
    03:00 +15°C° 0.1 mm 5 mps 729 mmHg 90%
    04:00 +15°C° 0.1 mm 5 mps 728 mmHg 91%
    05:00 +15°C° 1.4 mm 5 mps 728 mmHg 92%
    06:00 +15°C° 1.4 mm 5 mps 728 mmHg 93%
    07:00 +15°C° 1.4 mm 5 mps 728 mmHg 94%
    08:00 +14°C° 1.5 mm 4 mps 728 mmHg 94%
    09:00 +13°C° 1.5 mm 4 mps 728 mmHg 93%
    10:00 +11°C° 1.5 mm 3 mps 728 mmHg 93%
    11:00 +11°C° 0.1 mm 3 mps 728 mmHg 90%
    12:00 +12°C° 0.1 mm 4 mps 729 mmHg 86%
    13:00 +12°C° 0.1 mm 4 mps 729 mmHg 83%
    14:00 +12°C° 0 mm 4 mps 729 mmHg 77%
    15:00 +13°C° 0 mm 4 mps 730 mmHg 70%
    16:00 +14°C° 0 mm 5 mps 730 mmHg 64%
    17:00 +13°C° 0 mm 4 mps 730 mmHg 66%
    18:00 +13°C° 0 mm 4 mps 730 mmHg 67%
    19:00 +12°C° 0 mm 4 mps 731 mmHg 69%
    20:00 +11°C° 0 mm 4 mps 731 mmHg 73%
    21:00 +10°C° 0 mm 3 mps 731 mmHg 78%
    22:00 +9°C° 0 mm 3 mps 731 mmHg 82%
    23:00 +8°C° 0.1 mm 3 mps 731 mmHg 85%

    23 August, Thursday

    Time Temperature Precipitation Wind Pressure Humidity
    00:00 +8°C° 0.1 mm 3 mps 731 mmHg 87%
    01:00 +8°C° 0.1 mm 3 mps 732 mmHg 90%
    02:00 +8°C° 0.1 mm 3 mps 732 mmHg 90%
    03:00 +8°C° 0.1 mm 3 mps 732 mmHg 91%
    04:00 +8°C° 0.1 mm 3 mps 733 mmHg 92%
    05:00 +8°C° 0.1 mm 3 mps 733 mmHg 92%
    06:00 +8°C° 0.1 mm 3 mps 734 mmHg 92%
    07:00 +8°C° 0.1 mm 3 mps 734 mmHg 92%
    08:00 +7°C° 0.1 mm 4 mps 734 mmHg 92%
    09:00 +7°C° 0.1 mm 4 mps 735 mmHg 91%
    10:00 +7°C° 0.1 mm 4 mps 735 mmHg 91%
    11:00 +7°C° 0.1 mm 4 mps 736 mmHg 89%
    12:00 +8°C° 0.1 mm 4 mps 737 mmHg 88%
    13:00 +8°C° 0.1 mm 4 mps 737 mmHg 86%
    14:00 +8°C° 0 mm 4 mps 738 mmHg 82%
    15:00 +10°C° 0 mm 4 mps 738 mmHg 78%
    16:00 +10°C° 0 mm 4 mps 739 mmHg 73%
    17:00 +10°C° 0 mm 3 mps 739 mmHg 72%
    18:00 +10°C° 0 mm 2 mps 739 mmHg 70%
    19:00 +12°C° 0 mm 2 mps 740 mmHg 69%
    20:00 +10°C° 0 mm 1 mps 740 mmHg 75%
    21:00 +9°C° 0 mm 1 mps 740 mmHg 80%
    22:00 +7°C° 0 mm 1 mps 740 mmHg 86%
    23:00 +7°C° 0 mm 1 mps 740 mmHg 88%

    24 August, Friday

    Time Temperature Precipitation Wind Pressure Humidity
    00:00 +6°C° 0 mm 1 mps 741 mmHg 89%
    01:00 +6°C° 0 mm 1 mps 741 mmHg 91%
    02:00 +6°C° 0 mm 1 mps 741 mmHg 92%
    03:00 +6°C° 0 mm 1 mps 741 mmHg 93%
    04:00 +5°C° 0 mm 1 mps 742 mmHg 94%
    05:00 +6°C° 0 mm 1 mps 742 mmHg 90%
    06:00 +7°C° 0 mm 1 mps 742 mmHg 85%
    07:00 +8°C° 0 mm 1 mps 743 mmHg 80%
    08:00 +11°C° 0 mm 1 mps 743 mmHg 71%
    09:00 +13°C° 0 mm 1 mps 743 mmHg 63%
    10:00 +15°C° 0 mm 1 mps 743 mmHg 54%
    11:00 +16°C° 0 mm 2 mps 743 mmHg 51%
    12:00 +17°C° 0 mm 2 mps 743 mmHg 48%
    13:00 +18°C° 0 mm 2 mps 743 mmHg 45%
    14:00 +19°C° 0 mm 2 mps 743 mmHg 45%
    15:00 +19°C° 0 mm 2 mps 743 mmHg 45%
    16:00 +19°C° 0 mm 2 mps 743 mmHg 45%
    17:00 +19°C° 0 mm 1 mps 743 mmHg 52%
    18:00 +18°C° 0 mm 1 mps 743 mmHg 59%
    19:00 +16°C° 0 mm 1 mps 743 mmHg 67%
    20:00 +15°C° 0 mm 1 mps 743 mmHg 74%
    21:00 +13°C° 0 mm 1 mps 744 mmHg 81%
    22:00 +12°C° 0 mm 1 mps 744 mmHg 89%
    23:00 +11°C° 0 mm 1 mps 744 mmHg 91%
    Show more